Flag for Portugal Weather past 2 weeks in Cascais, Portugal

59 °F

Passing clouds.

Feels Like: 57 °F
Forecast: 60 / 65 °F
Wind: 13 mph from North

Location: Lisbon Portela Airport

Current Time: Nov 27, 2015 at 10:06:30 AM

Latest Report: Nov 27, 2015 at 9:30 AM

Visibility: N/A

Pressure: 30.12 "Hg

Humidity: 77%

Dew point: 52 °F

Location of CascaisLocation

Historic Weather in Cascais — Graph


Cascais temperature yesterday

Maximum temperature yesterday: 64 °F (at 12:00 PM)
Minimum temperature yesterday: 55 °F (at 1:00 AM)
Average temperature yesterday: 59 °F

Past Weeks' High & Low Weather Summary

High70 °F (Nov 20, 2:30 PM)100% (Nov 16, 7:00 AM)30.48 "Hg (Nov 16, 7:00 AM)
Low39 °F (Nov 24, 7:30 AM)48% (Nov 24, 1:30 PM)30.04 "Hg (Nov 22, 4:30 PM)
Average58 °F79%30.31 "Hg
* Reported Nov 12 9:00 AM — Nov 27 9:00 AM, Cascais, Weather by CustomWeather, © 2015

Note: Actual official high and low records may vary slightly from our data, if they occured in-between our weather recording intervals... More about our weather records


Cascais weather history for previous 24 hours

Time TempWeatherWind HumidityBarometerVisibility
9:00 AM
Fri, Nov 27
59 °FPassing clouds.14 mph77%30.12 "HgN/A
8:30 AM57 °FPassing clouds.12 mph88%30.12 "HgN/A
8:00 AM57 °FPassing clouds.17 mph82%30.12 "HgN/A
6:30 AM57 °FPassing clouds.9 mph88%30.09 "HgN/A
6:00 AM57 °FPassing clouds.12 mph88%30.09 "HgN/A
5:30 AM55 °FPassing clouds.10 mph94%30.09 "HgN/A
5:00 AM57 °FPassing clouds.13 mph88%30.09 "HgN/A
4:00 AM57 °FPassing clouds.18 mph88%30.09 "HgN/A
3:00 AM57 °FPassing clouds.15 mph82%30.12 "HgN/A
2:30 AM57 °FPassing clouds.13 mph88%30.12 "HgN/A
2:00 AM57 °FPassing clouds.13 mph88%30.12 "HgN/A
1:30 AM57 °FClear.13 mph88%30.12 "Hg10 mi
1:00 AM57 °FClear.12 mph82%30.15 "Hg10 mi
12:30 AM57 °FClear.14 mph88%30.15 "Hg10 mi
11:30 PM
Thu, Nov 26
57 °FClear.17 mph88%30.15 "Hg10 mi
11:00 PM57 °FClear.14 mph88%30.15 "Hg10 mi
10:00 PM57 °FClear.12 mph82%30.18 "Hg10 mi
9:30 PM57 °FClear.13 mph82%30.18 "Hg10 mi
9:00 PM57 °FClear.12 mph82%30.18 "Hg10 mi
8:30 PM57 °FPassing clouds.8 mph82%30.18 "HgN/A
8:00 PM57 °FPassing clouds.14 mph82%30.18 "HgN/A
7:30 PM57 °FPassing clouds.9 mph88%30.18 "HgN/A
6:30 PM59 °FPassing clouds.9 mph82%30.18 "HgN/A
6:00 PM59 °FPassing clouds.8 mph82%30.18 "HgN/A
5:30 PM59 °FPassing clouds.15 mph77%30.18 "HgN/A
5:00 PM61 °FPassing clouds.17 mph77%30.18 "HgN/A
4:30 PM61 °FPassing clouds.17 mph72%30.18 "HgN/A
4:00 PM63 °FPassing clouds.15 mph68%30.18 "HgN/A
3:30 PM63 °FPassing clouds.25 mph68%30.18 "HgN/A
3:00 PM63 °FPassing clouds.23 mph68%30.18 "HgN/A
2:30 PM64 °FPassing clouds.21 mph64%30.18 "HgN/A
2:00 PM64 °FPassing clouds.22 mph64%30.21 "HgN/A
1:30 PM64 °FPassing clouds.21 mph64%30.21 "HgN/A
1:00 PM64 °FPassing clouds.20 mph64%30.24 "HgN/A
12:30 PM64 °FPassing clouds.21 mph64%30.24 "HgN/A
12:00 PM64 °FPassing clouds.17 mph60%30.27 "HgN/A
11:30 AM63 °FPassing clouds.14 mph68%30.27 "HgN/A
11:00 AM63 °FPassing clouds.16 mph68%30.30 "HgN/A
10:30 AM61 °FPassing clouds.20 mph72%30.30 "HgN/A
10:00 AM59 °FPassing clouds.21 mph72%30.30 "HgN/A
Weather by CustomWeather, © 2015

See weather overviewHow to use our weather pages